Flag for U.S.A. Weather past 2 weeks in Buffalo, New York, U.S.A.

Now
18 °F

Partly sunny.


Feels Like: 4 °F
Forecast: -1 / 19 °F
Wind: 15 mph from Southwest

Location: Greater Buffalo International Airport

Current Time: Mar 6, 2015 at 5:36:56 PM

Latest Report: Mar 6, 2015 at 4:54 PM


Visibility: 10 mi

Pressure: 30.35 "Hg

Humidity: 65%

Dew point: 8 °F

Location of BuffaloLocation

Historic Weather in Buffalo — Graph

°F

Buffalo temperature yesterday

Maximum temperature yesterday: 19 °F (at 12:54 AM)
Minimum temperature yesterday: 6 °F (at 11:54 PM)
Average temperature yesterday: 11 °F

Past Weeks' High & Low Weather Summary

 TemperatureHumidityPressure
High37 °F (Mar 3, 7:54 PM)93% (Mar 3, 8:54 PM)30.83 "Hg (Mar 3, 8:54 PM)
Low-8 °F (Feb 20, 1:54 AM)36% (Feb 24, 12:54 PM)29.59 "Hg (Mar 3, 7:54 PM)
Average13 °F71%30.25 "Hg
* Reported Feb 19 3:54 PM — Mar 6 3:54 PM, Buffalo, Weather by CustomWeather, © 2015

Note: Actual official high and low records may vary slightly from our data, if they occured in-between our weather recording intervals... More about our weather records

Advertising

Buffalo weather history for previous 24 hours

 ConditionsComfort  
Time TempWeatherWind HumidityBarometerVisibility
3:54 PM
Fri, Mar 6
20 °FPartly sunny.14 mph57%30.38 "Hg10 mi
2:54 PM19 °FPartly sunny.20 mph57%30.41 "Hg10 mi
1:54 PM19 °FPartly sunny.20 mph54%30.45 "Hg10 mi
12:54 PM17 °FPassing clouds.17 mph54%30.49 "Hg10 mi
11:54 AM16 °FPassing clouds.13 mph49%30.52 "Hg10 mi
10:54 AM14 °FPassing clouds.17 mph51%30.52 "Hg10 mi
9:54 AM11 °FSunny.14 mph56%30.54 "Hg10 mi
8:54 AM9 °FSunny.8 mph64%30.55 "Hg10 mi
7:54 AM1 °FSunny.7 mph79%30.55 "Hg10 mi
6:54 AM0 °FSunny.8 mph79%30.55 "Hg10 mi
5:54 AM0 °FClear.8 mph83%30.55 "Hg10 mi
4:54 AM-1 °FClear.7 mph79%30.53 "Hg10 mi
3:54 AM1 °FClear.7 mph83%30.53 "Hg10 mi
2:54 AM2 °FClear.8 mph80%30.54 "Hg10 mi
1:54 AM3 °FClear.6 mph72%30.53 "Hg10 mi
12:54 AM5 °FClear.7 mph66%30.52 "Hg10 mi
11:54 PM
Thu, Mar 5
6 °FClear.7 mph66%30.53 "Hg10 mi
10:54 PM7 °FPassing clouds.9 mph63%30.53 "Hg10 mi
9:54 PM8 °FPassing clouds.10 mph60%30.51 "Hg10 mi
8:54 PM9 °FPassing clouds.9 mph61%30.49 "Hg10 mi
7:54 PM9 °FPassing clouds.8 mph64%30.47 "Hg10 mi
6:54 PM9 °FPassing clouds.9 mph64%30.44 "Hg10 mi
5:54 PM10 °FPartly sunny.14 mph64%30.40 "Hg10 mi
Weather by CustomWeather, © 2015

See weather overviewHow to use our weather pages